Location: Newark
(21.1200°N, 73.4000°E)
Time: 19:39:31
(UTC+00:00)

SR - Pass Details

Date: 01 February 2020
Orbit: 575 x 881 km, 66.7° (Epoch: 17 February)

Event Time Altitude Azimuth Distance (km) Brightness Sun altitude
Rises 00:31:47 0° 356° (N) 3,247 ? -17.0°
Reaches altitude 10° 00:34:51 10° 12° (NNE) 2,258 ? -16.3°
Maximum altitude 00:38:39 21° 60° (ENE) 1,573 ? -15.4°
Drops below altitude 10° 00:42:14 10° 109° (ESE) 2,102 ? -14.6°
Sets 00:44:57 0° 126° (SE) 2,958 ? -14.0°
